sat.trackr.live / text

‹ back to catalog

STARLINK-34517

NORAD 64595 · 2025-137B

PAYLOAD ACTIVE UNKNOWN

§ Identity

Operator
Country
US
Launch date
2025-06-25
Launch site
AFETR
Launch vehicle
Mass (kg)
RCS (m²)

Purposes: comms

External: N2YO · Heavens-Above · Gunter

§ Orbital elements

Epoch: 2026-05-24T23:41:26.442240Z

Period
94.10 min
Inclination
53.1600°
Eccentricity
0.0001184
Mean motion
15.30207296 rev/d
Perigee alt
474.4 km
Apogee alt
476.0 km
Semi-major
6,853.3 km
B*
4.5654e-4
RAAN
341.0376°
Arg perigee
92.8559°
Mean anomaly
267.2577°
Rev number
5,241

§ Raw data

STARLINK-345171 64595U 25137B   26144.98711160  .00013189  00000+0  45654-3 0  99952 64595  53.1600 341.0376 0001184  92.8559 267.2577 15.30207296 52415

JSON: /api/v1/satellites/64595 · /tle

For live sub-satellite position, see the globe view (requires WebGL).

§ Visibility from observer

Set your observer location to see the next 7 days of passes ≥ 10°. The values pass through the URL so the page stays shareable.

No JS? Fill the form by hand. The geolocation button needs JavaScript.